Weather in Supsekh

Russia / Krasnodar Krai     44°51′32″N   37°21′31″E
temp.,
°C
wind,
m/s
gust,
m/s
humid.,
%
clouds,
%
prec.,
mm/h
press.,
hPa
HPBL,
m
8 march, mon
mon800:00+4wsw66470 0.0 10221514
03:00+4wsw665325 0.0 10211615
06:00+5wsw7758100 0.0 10201450
09:00+4wsw7764100 0.2 10191261
12:00+5wsw785596 0.1 10191482
15:00+5wsw9106389 0.1 10181514
18:00+6sw896393 0.1 10171439
21:00+6sw775992 0.1 10171369
9 march, tue
tue900:00+6sw886595 0.0 10171227
03:00+6sw886697 0.0 10171237
06:00+6wsw9968100 0.1 10161262
09:00+5w6780100 1.6 1018700
12:00+6nw7668100 0.3 1018943
15:00+6nw666659 0.4 10191138
18:00+5nnw666294 0.0 10191135
21:00+5nnw545695 0.0 1022945
10 march, wed
wed1000:00+4n444889 0.0 1022737
03:00+4nne334794 0.0 1023966
06:00+3ne656199 0.0 1023686
09:00+3ene556199 0.0 1024624
12:00+4ne4449100 0.0 1023880
15:00+5ne6654100 0.0 10211048
18:00+5ne8861100 0.0 1020832
21:00+3ene101164100 0.0 1019535
11 march, thu
thu1100:00+3ene91075100 0.0 1019578
03:00+2ne101277100 0.0 1019624
06:00+1ne121473100 0.0 1019653
09:00+1ne121472100 0.0 1019780
12:00+3ne11136392 0.0 10201229
15:00+3ne11125447 0.0 10201469
18:00+3ne1112500 0.0 10221390
21:00+2ne1113560 0.0 10241089
12 march, fri
fri1200:00+1ne1011570 0.0 1025889
03:000ne810570 0.0 1026755
06:00−1ene89580 0.0 1027701
09:00−1ene68550 0.0 1028636
12:00+1ene45410 0.0 1027750
15:00+3ene12330 0.0 1026795
18:00+4e233611 0.0 1025748
21:00+4sse784944 0.0 1023799